DELTA 1 DEB, 12540

Orbit data source: Space-Track

DELTA 1 DEB, 12540 is space debris in SSO originally from a launch on Thu, 29 Jul 1976 UTC launched from the Air Force Western Test Range (AFWTR). Debris objects in space refer to the collection of defunct objects orbiting the Earth. Examples of debris include non-operational satellites, rocket bodies, and fragments generated from explosions, collisions, or faulty payload assembly.

Loading next visibility...
Identifier
12540, 1976-077DV
Orbit
SSO
Country
Flag of USUS
Related business
Manufacturer
Unknown
Mission
Spacecraft
Bus & Motor
Unknown
Mass
Unknown
Launch date (UTC)
1976-07-29 (49 years ago)
Launch vehicle
Unknown
Launch site
Air Force Western Test Range (AFWTR)
Object type
Payload
Rocket body
Debris
Shape & HBR
Unknown shape, 0.1 m
Radar Cross Section
Small (<0.1 m²)

Expand to show TLE details & history
Last TLE update: 20 hours ago

TLE from 20 hours ago
0 DELTA 1 DEB
1 12540U 76077DV  25288.77550169 -.00000195  00000-0 -10014-2 0  9999
2 12540 102.4317  37.3063 0042006  86.3777  68.8372 12.47173566 70276
Epoch: 2025-10-15T18:36Z
TLE epoch observation values (Epoch: 2025-10-15T18:36:43.346Z)
Latitude
23.75273°
Longitude
-80.87942°
Altitude
1,467.088 km
Speed
7.137 km/s
True Right ascension
14h 51m 23s
True Declination
23° 38' 16"
Sunlit
Object was in daylight at epoch
Visualization orbit readout
Latitude
Unknown
Longitude
Unknown
Altitude
Unknown
Speed
Unknown
Apparent Right ascension
Unknown
Apparent Declination
Unknown
Sunlit
N/A
Visualization observer readout
Local Sidereal Time
09:11:02
Azimuth
Unknown
Elevation
Unknown
Doppler factor
Unknown
Orbital elements
Apogee altitude
1,506.914 km
Perigee altitude
1,440.948 km
Semi-major axis
7,852.068 km
Eccentricity
0.0042
Inclination
102.4317°
RAAN
37.3063°
Arg. of periapsis
86.3777°
True anomaly
69.28694°
Mean anomaly
68.8372°
Eccentric anomaly
69.06198°
Mean motion
3.11937 °/min
Orbital period
115.41 mins
BSTAR
-0.0010014
Loading maneuver chart data...
Computing Atmospheric mass density...
Loading historical data...
Loading historical data...
Loading historical data...
Loading historical data...
Loading historical data...
Loading historical data...
Loading historical data...

Documentation

Showing up to 5 results
|